YAOGAN 4

Last updated on Sat Apr 13 2024 01:02:24 GMT+0100 (British Summer Time)

1 33446U 08061A 24103.36014310 .00001647 00000+0 22714-3 0 9999 2 33446 97.8763 36.5200 0016144 135.6972 224.5535 14.79422303827825
UTC large
Height (km)
Speed (km/s)
/
Latitude / Longitude
Inclination (degrees)
Orbital Period (minutes)
Azimuth
Elevation
Range (km)
Doppler Factor

Next 0 passes for location: London (51.5072 / 0.1276)

Sorry there are no passes over London.